Terminal Aerodrome Forecast
Issued by NWS

Home | Current Version | Previous Version | Text Only | Print | Product List | Glossary Off
Versions: 1 2 3 4 5 6 7 8 9 10 11 12 13 14 15 16 17 18 19 20 21 22 23 24 25

000
FTUS45 KGGW 232300
TAFGDV
TAF
KGDV 232320Z 2400/2424 13016G25KT P6SM SCT170
     FM240400 12013G26KT P6SM VCTS SCT100CB
     FM241200 12009KT P6SM FEW220
     FM242100 VRB06KT P6SM SCT200
      AMD LTD TO CLD VIS AND WIND=

USA.gov is the U.S. government's official web portal to all federal, state and local government web resources and services.